Time,TemperatureF,DewpointF,PressureIn,WindDirection,WindDirectionDegrees,WindSpeedMPH,WindSpeedGustMPH,Humidity,HourlyPrecipIn,Conditions,Clouds,dailyrainin,SolarRadiationWatts/m^2,SoftwareType,DateUTC
2013-02-04 00:00:00,33.0,26.0,-100.00,SSW,206,8.0,14.0,77,-99.99,,,0.00,0.700000,,2013-02-04 08:00:00,
2013-02-04 00:52:00,33.0,26.0,-100.00,SSW,206,8.0,14.0,77,-99.99,,,0.00,0.700000,,2013-02-04 08:52:00,
2013-02-04 01:00:00,32.0,25.0,-100.00,SSE,156,6.0,9.0,75,-99.99,,,-99.99,2.000000,,2013-02-04 09:00:00,
2013-02-04 01:52:00,32.0,25.0,-100.00,SSE,156,6.0,9.0,75,-99.99,,,-99.99,2.000000,,2013-02-04 09:52:00,
2013-02-04 02:00:00,34.0,26.0,-100.00,SSE,147,3.0,9.0,73,-99.99,,,0.00,-0.200000,,2013-02-04 10:00:00,
2013-02-04 02:52:00,34.0,26.0,-100.00,SSE,147,3.0,9.0,73,-99.99,,,0.00,-0.200000,,2013-02-04 10:52:00,
2013-02-04 03:00:00,32.0,25.0,-100.00,SSW,211,5.0,9.0,73,-99.99,,,0.00,-0.200000,,2013-02-04 11:00:00,
2013-02-04 03:52:00,32.0,25.0,-100.00,SSW,211,5.0,9.0,73,-99.99,,,0.00,-0.200000,,2013-02-04 11:52:00,
2013-02-04 04:00:00,32.0,26.0,-100.00,South,181,6.0,9.0,78,-99.99,,,0.00,-0.200000,,2013-02-04 12:00:00,
2013-02-04 04:53:00,32.0,26.0,-100.00,South,181,6.0,9.0,78,-99.99,,,0.00,-0.200000,,2013-02-04 12:53:00,
2013-02-04 05:00:00,31.0,25.0,-100.00,SSE,151,4.0,6.0,79,-99.99,,,-99.99,-0.200000,,2013-02-04 13:00:00,
2013-02-04 05:52:00,31.0,25.0,-100.00,SSE,151,4.0,6.0,79,-99.99,,,-99.99,-0.200000,,2013-02-04 13:52:00,
2013-02-04 06:00:00,31.0,25.0,-100.00,SSW,192,4.0,7.0,79,-99.99,,,-99.99,-0.200000,,2013-02-04 14:00:00,
2013-02-04 06:52:00,31.0,25.0,-100.00,SSW,192,4.0,7.0,79,-99.99,,,-99.99,-0.200000,,2013-02-04 14:52:00,
2013-02-04 07:00:00,31.0,25.0,-100.00,SE,136,3.0,5.0,78,-99.99,,,0.00,-0.200000,,2013-02-04 15:00:00,
2013-02-04 07:52:00,31.0,25.0,-100.00,SE,136,3.0,5.0,78,-99.99,,,0.00,-0.200000,,2013-02-04 15:52:00,
2013-02-04 09:00:00,35.0,25.0,-100.00,WSW,249,1.0,3.0,66,-99.99,,,0.00,44.599998,,2013-02-04 17:00:00,
2013-02-04 09:52:00,35.0,25.0,-100.00,WSW,249,1.0,3.0,66,-99.99,,,0.00,44.599998,,2013-02-04 17:52:00,
2013-02-04 10:00:00,37.0,26.0,-100.00,NNW,335,1.0,3.0,62,-99.99,,,0.00,169.899994,,2013-02-04 18:00:00,
2013-02-04 10:52:00,37.0,26.0,-100.00,NNW,335,1.0,3.0,62,-99.99,,,0.00,169.899994,,2013-02-04 18:52:00,
2013-02-04 11:00:00,38.0,24.0,-100.00,ESE,107,1.0,3.0,57,-99.99,,,0.00,198.500000,,2013-02-04 19:00:00,
2013-02-04 11:52:00,38.0,24.0,-100.00,ESE,107,1.0,3.0,57,-99.99,,,0.00,198.500000,,2013-02-04 19:52:00,
2013-02-04 12:00:00,38.0,23.0,-100.00,SSE,164,2.0,6.0,55,-99.99,,,0.00,300.399994,,2013-02-04 20:00:00,
2013-02-04 12:52:00,38.0,23.0,-100.00,SSE,164,2.0,6.0,55,-99.99,,,0.00,300.399994,,2013-02-04 20:52:00,
2013-02-04 13:00:00,38.0,26.0,-100.00,SSE,168,5.0,9.0,62,-99.99,,,0.00,296.000000,,2013-02-04 21:00:00,
2013-02-04 13:52:00,38.0,26.0,-100.00,SSE,168,5.0,9.0,62,-99.99,,,0.00,296.000000,,2013-02-04 21:52:00,
2013-02-04 14:00:00,38.0,25.0,-100.00,SSE,154,3.0,6.0,60,-99.99,,,0.00,213.000000,,2013-02-04 22:00:00,
2013-02-04 14:52:00,38.0,25.0,-100.00,SSE,154,3.0,6.0,60,-99.99,,,0.00,213.000000,,2013-02-04 22:52:00,
2013-02-04 15:00:00,37.0,24.0,-100.00,ESE,114,3.0,5.0,59,-99.99,,,0.00,181.300003,,2013-02-04 23:00:00,
2013-02-04 15:52:00,37.0,24.0,-100.00,ESE,114,3.0,5.0,59,-99.99,,,0.00,181.300003,,2013-02-04 23:52:00,
2013-02-04 16:00:00,37.0,24.0,-100.00,SE,131,1.0,4.0,60,-99.99,,,0.00,145.300003,,2013-02-05 00:00:00,
2013-02-04 16:52:00,37.0,24.0,-100.00,SE,131,1.0,4.0,60,-99.99,,,0.00,145.300003,,2013-02-05 00:52:00,
2013-02-04 17:00:00,35.0,25.0,-100.00,SE,146,4.0,6.0,66,-99.99,,,0.00,35.000000,,2013-02-05 01:00:00,
2013-02-04 17:52:00,35.0,25.0,-100.00,SE,146,4.0,6.0,66,-99.99,,,0.00,35.000000,,2013-02-05 01:52:00,
2013-02-04 18:00:00,35.0,-99.9,-100.00,North,-999,-999.0,-999.0,-999,-99.99,,,0.00,,,2013-02-05 02:00:00,
2013-02-04 18:52:00,35.0,-99.9,-100.00,North,-999,-999.0,-999.0,-999,-99.99,,,0.00,,,2013-02-05 02:52:00,
2013-02-04 19:00:00,35.0,25.0,-100.00,South,169,4.0,7.0,66,-99.99,,,0.00,-0.200000,,2013-02-05 03:00:00,
2013-02-04 19:52:00,35.0,25.0,-100.00,South,169,4.0,7.0,66,-99.99,,,0.00,-0.200000,,2013-02-05 03:52:00,
2013-02-04 20:00:00,35.0,24.0,-100.00,ESE,108,4.0,6.0,65,-99.99,,,0.00,-0.200000,,2013-02-05 04:00:00,
2013-02-04 20:52:00,35.0,24.0,-100.00,ESE,108,4.0,6.0,65,-99.99,,,0.00,-0.200000,,2013-02-05 04:52:00,
2013-02-04 21:00:00,33.0,29.0,-100.00,SE,140,4.0,7.0,84,-99.99,,,0.00,-0.200000,,2013-02-05 05:00:00,
2013-02-04 21:52:00,33.0,29.0,-100.00,SE,140,4.0,7.0,84,-99.99,,,0.00,-0.200000,,2013-02-05 05:52:00,
2013-02-04 22:00:00,32.0,31.0,-100.00,ESE,104,2.0,4.0,95,-99.99,,,0.00,-0.200000,,2013-02-05 06:00:00,
2013-02-04 22:52:00,32.0,31.0,-100.00,ESE,104,2.0,4.0,95,-99.99,,,0.00,-0.200000,,2013-02-05 06:52:00,
2013-02-04 23:00:00,32.0,32.0,-100.00,East,96,4.0,5.0,98,-99.99,,,0.00,-0.200000,,2013-02-05 07:00:00,
2013-02-04 23:52:00,32.0,32.0,-100.00,East,96,4.0,5.0,98,-99.99,,,0.00,-0.200000,,2013-02-05 07:52:00,